Temp
13 13 13 13 13 14 14 14 14 14 14 14 14 14 14 14 14 13 13 13 13 13 13 13 13 13 13 13 13 13 13 13 12 12 12 12 12 12 12 12 12 12 12 11 11 11 11 11 11 11 11 11 11 11 11 11 10 10 10 10 10 10 10 10 10 10 10 10 10
13 13 13 13 14 14 14 14 14 14 14 14 14 14 14 14 14 14 13 13 13 13 13 13 13 13 13 13 13 13 13 13 12 12 12 12 12 12 12 12 12 12 12 11 11 11 11 11 11 11 11 11 11 11 10 10 10 10 10 10 10 10 9 9 9 10 10 10 9
13 13 13 14 14 14 14 14 14 14 14 14 14 14 14 14 14 14 14 14 14 13 13 13 13 13 13 13 13 13 13 13 13 12 12 12 12 12 12 12 12 12 11 11 11 11 11 11 10 10 10 10 10 10 10 10 10 10 10 10 10 9 9 9 9 9 9 9 9
13 13 14 14 14 14 14 14 14 14 14 14 14 14 14 14 14 14 14 14 14 14 13 13 13 13 13 13 13 13 13 13 13 12 12 12 12 12 12 12 12 11 11 11 11 11 11 11 10 10 10 10 10 10 10 10 10 10 10 10 9 9 9 9 9 9 9 9 9
13 13 14 14 14 14 14 14 14 14 14 14 14 14 14 14 14 14 14 14 14 14 14 14 14 13 13 13 13 13 13 13 12 12 12 12 12 12 12 12 11 11 11 11 11 11 11 10 10 10 10 10 10 10 10 10 10 9 9 9 9 9 9 9 9 9 9 9 9
13 13 14 14 14 14 14 14 14 14 14 14 14 14 14 14 14 14 14 14 14 14 14 14 14 14 13 13 13 13 13 12 12 12 12 12 12 12 11 11 11 11 11 11 11 11 10 10 10 10 10 10 10 10 10 10 10 9 9 9 9 9 9 9 9 9 9 9 9
13 13 14 14 14 14 14 14 14 14 14 14 14 14 14 14 14 14 14 14 14 14 14 14 14 14 13 13 13 13 13 12 12 12 12 12 12 12 11 11 11 11 11 11 10 10 10 10 10 10 10 10 10 10 10 9 9 9 9 9 9 9 9 9 9 9 9 9 9
13 13 14 14 14 14 14 14 14 14 14 14 14 14 14 14 14 14 14 14 14 14 14 14 14 14 13 13 13 13 13 12 12 12 12 12 12 11 11 11 11 11 10 10 10 10 10 10 10 10 10 9 9 9 9 9 9 9 9 9 9 9 9 9 9 9 9 9 9
13 13 13 14 14 14 14 14 14 14 14 14 14 14 14 14 14 14 14 14 14 14 14 14 14 14 13 13 13 13 13 12 12 12 12 12 11 11 11 11 11 10 10 10 10 10 10 10 10 10 10 9 9 9 9 9 9 9 9 9 9 9 9 9 9 9 9 9 9
13 13 13 14 14 14 14 14 14 14 14 14 14 14 14 14 14 14 14 14 14 14 14 14 13 13 13 13 13 13 13 12 12 12 12 12 11 11 11 11 11 10 10 10 10 10 10 10 9 9 9 9 9 9 9 9 9 9 9 9 9 9 9 9 9 9 9 9 9
13 13 13 13 14 14 14 14 14 14 14 14 14 14 14 14 14 14 14 14 14 14 14 13 13 13 13 13 13 13 13 12 12 12 12 12 11 11 11 11 11 10 10 10 10 9 9 9 9 9 9 9 9 9 9 9 9 9 9 9 9 9 9 9 9 8 8 8 8
13 13 13 13 14 14 14 14 14 14 14 14 14 14 14 14 14 14 14 14 14 14 14 13 13 13 13 13 13 13 13 12 12 12 12 12 11 11 11 11 11 10 10 10 9 9 9 9 9 9 9 9 9 9 9 9 9 9 9 9 9 9 9 9 8 8 8 8 8
13 13 13 13 13 14 14 14 14 14 14 14 14 14 14 14 14 14 14 13 13 13 13 13 13 13 13 13 13 13 12 12 12 12 12 12 11 11 11 11 10 10 10 10 9 9 9 9 9 9 9 9 9 9 9 9 9 9 9 9 8 8 9 9 8 8 8 8 8
13 13 13 13 13 13 13 14 13 13 13 14 14 13 13 13 13 13 13 13 13 13 13 13 13 13 13 13 13 12 12 12 12 12 12 11 11 11 11 11 10 10 10 10 9 9 9 9 9 9 9 9 9 9 9 9 9 9 9 9 9 9 9 9 8 8 8 8 8
13 13 13 13 13 13 13 13 13 13 13 13 13 13 13 13 13 13 13 13 13 13 13 13 13 13 13 13 13 12 12 12 12 12 11 11 11 11 11 11 10 10 10 10 9 9 9 9 9 9 9 9 9 9 9 9 9 9 9 9 9 9 9 8 8 8 8 8 8
13 13 13 13 13 13 13 13 13 13 13 13 13 13 13 13 13 13 13 13 13 13 13 13 13 13 12 12 12 12 12 12 12 11 11 11 11 11 11 10 10 10 10 10 9 9 9 9 9 9 9 9 9 9 9 9 9 9 9 9 9 9 9 8 8 8 8 8 8
13 13 13 13 13 13 13 13 13 13 13 13 13 13 13 13 13 13 13 13 13 13 13 13 13 13 12 12 12 12 12 12 11 11 11 11 11 11 11 10 10 10 10 10 10 9 9 9 9 9 9 9 9 9 9 9 9 9 9 9 9 9 9 8 8 8 8 8 8
13 13 13 13 13 13 13 13 13 13 13 13 13 13 13 13 13 13 13 13 13 13 13 13 13 12 12 12 12 12 12 11 11 11 11 11 11 11 11 11 10 10 10 10 10 10 9 9 9 9 9 9 9 9 9 9 9 9 9 9 9 9 9 8 8 8 8 8 8
13 13 13 13 13 13 13 13 13 13 13 13 13 13 13 13 13 13 13 13 13 13 13 13 12 12 12 12 12 12 11 11 11 11 11 11 11 11 11 11 10 10 10 10 10 10 10 10 9 9 9 9 9 9 9 9 9 9 9 9 9 9 8 8 8 8 8 8 8
13 13 13 13 13 13 13 13 13 13 13 13 13 13 13 13 13 13 13 13 13 13 13 12 12 12 12 12 12 12 11 11 11 11 11 11 11 11 11 11 10 10 10 10 10 10 10 10 9 9 9 9 9 9 9 9 9 9 9 9 9 8 8 8 8 8 8 8 8
13 13 13 13 13 13 13 13 13 13 13 13 13 13 13 13 13 13 13 13 13 13 12 12 12 12 12 12 12 12 11 11 11 11 11 11 11 11 11 11 10 10 10 10 10 10 10 10 10 9 9 9 9 9 9 9 9 9 9 9 9 8 8 8 8 8 8 8 8
13 13 13 13 13 13 13 13 13 13 13 13 13 13 13 13 13 13 13 13 13 12 12 12 12 12 12 12 12 12 12 11 11 11 11 11 11 11 11 11 10 10 10 10 10 10 10 10 10 10 9 9 9 9 9 9 9 9 9 9 8 8 8 8 8 8 8 8 8
13 13 13 13 13 13 13 13 13 13 13 13 13 13 13 13 13 13 13 13 13 12 12 12 12 12 12 12 12 12 11 11 11 11 11 11 11 11 10 10 10 10 10 10 10 10 10 10 10 10 10 9 9 9 9 9 9 9 9 9 8 8 8 8 8 8 8 8 8
13 13 13 13 13 13 13 13 13 13 13 13 13 13 13 13 13 13 13 12 12 12 12 12 12 12 12 12 12 12 11 11 11 11 11 11 11 10 10 10 10 10 10 10 10 10 10 10 10 10 9 9 9 9 9 9 9 9 9 9 8 8 8 8 8 8 8 8 8
13 13 13 13 13 13 13 13 12 12 12 12 13 13 13 13 12 12 12 12 12 12 12 12 12 12 12 12 12 12 11 11 11 11 11 11 11 10 10 10 10 10 10 10 10 10 10 10 10 10 9 9 9 9 9 9 9 9 9 9 8 8 8 8 8 8 8 8 7
13 13 13 13 13 13 13 13 12 12 12 12 12 12 12 12 12 12 12 12 12 12 12 12 12 12 12 12 11 11 11 11 11 11 11 11 10 10 10 10 10 10 10 10 10 10 10 10 10 10 10 9 9 9 9 9 9 9 9 9 8 8 8 8 8 7 7 7 7
13 13 13 13 13 13 13 12 12 12 12 12 12 12 12 12 12 12 12 12 12 12 12 12 12 12 12 12 11 11 11 11 11 11 11 11 10 10 10 10 10 10 10 10 10 10 10 10 10 10 10 9 9 9 9 9 9 9 9 8 8 8 8 8 7 7 7 7 7
13 13 13 13 13 13 13 12 12 12 12 12 12 12 12 12 12 12 12 12 12 12 12 12 12 12 11 11 11 11 11 11 11 11 11 11 10 10 10 10 10 10 10 10 10 10 10 10 10 10 10 9 9 9 9 9 8 8 8 8 8 8 8 8 7 7 7 7 7
12 12 13 13 13 13 13 12 12 12 12 12 12 12 12 12 12 12 12 12 12 12 12 11 11 11 11 11 11 11 11 11 11 10 10 10 10 10 10 10 10 10 10 10 10 10 10 9 9 9 9 9 9 9 9 9 8 8 8 8 8 8 7 7 7 7 7 7 6
12 12 12 12 12 12 12 12 12 12 12 12 12 12 12 12 12 12 12 12 12 11 11 11 11 11 11 11 11 11 11 11 11 10 10 10 10 10 10 10 10 9 9 9 9 9 9 9 9 9 9 9 9 9 9 8 8 8 8 8 7 7 7 7 7 7 6 6 6
12 12 12 12 12 12 12 12 12 12 12 12 12 12 11 11 11 11 12 11 11 11 11 11 11 11 11 11 11 11 11 10 10 10 10 10 10 10 10 10 9 9 9 9 9 9 9 9 9 9 9 9 9 8 8 8 8 8 8 7 7 7 7 7 6 6 6 6 6
11 11 11 12 12 12 12 12 12 12 12 12 12 11 11 11 11 11 11 11 11 11 11 11 11 11 11 11 11 10 10 10 10 10 10 10 10 10 9 9 9 9 9 9 9 9 9 9 9 8 8 8 8 8 8 8 8 7 7 7 7 7 6 6 6 6 6 6 6
10 11 11 11 11 11 12 12 12 12 12 11 11 11 11 11 11 11 11 11 11 11 11 11 11 11 10 10 10 10 10 10 10 10 10 10 10 9 9 9 9 9 9 9 9 9 9 8 8 8 8 7 7 7 7 7 7 7 7 7 6 6 6 6 6 6 6 5 5
10 10 10 10 11 11 11 11 11 11 11 11 11 11 11 11 11 11 11 11 11 11 11 11 10 10 10 10 10 10 10 10 10 10 9 9 9 9 9 9 9 8 8 8 8 8 8 8 8 7 7 7 7 7 7 7 7 6 6 6 6 6 6 6 6 6 5 5 5
9 9 10 10 10 10 11 11 11 11 11 11 11 11 11 11 11 11 11 11 11 11 10 10 10 10 10 10 10 10 9 9 9 9 9 9 9 9 9 8 8 8 8 8 8 8 8 7 7 7 7 6 6 6 6 6 6 6 6 6 6 5 5 5 5 5 5 5 5
8 8 9 9 9 10 10 10 10 10 10 10 10 10 10 10 10 10 10 10 10 10 10 10 10 10 9 9 9 9 9 9 9 9 9 9 8 8 8 8 8 7 7 7 7 7 7 7 7 6 6 6 5 5 6 6 5 5 5 5 5 5 5 5 5 5 5 4 4
6 7 8 8 9 9 9 9 9 9 10 10 10 10 10 10 10 10 10 10 10 10 9 9 9 9 9 9 9 9 9 9 9 8 8 8 8 8 7 7 7 7 6 6 7 7 7 6 6 6 5 5 5 5 5 5 5 5 5 4 4 4 4 4 4 4 4 4 4
5 6 6 7 7 8 8 8 9 9 9 9 9 9 9 9 9 9 9 9 9 9 9 9 9 9 9 9 8 8 8 8 8 8 8 7 7 7 7 6 6 6 6 6 6 6 6 6 6 6 5 4 4 4 4 4 4 4 4 4 4 4 4 4 4 4 4 4 4
4 4 5 6 6 7 7 8 8 8 8 8 8 8 8 8 8 8 8 8 9 9 9 8 8 8 8 8 8 7 7 7 7 7 7 7 6 6 6 6 5 5 5 5 5 6 6 5 5 5 4 4 4 4 4 3 3 3 3 3 3 3 3 3 3 3 3 3 3
3 3 4 4 5 6 6 7 7 7 7 7 7 7 7 7 7 7 7 8 8 8 8 8 8 7 7 7 7 7 6 6 6 6 6 6 6 6 6 5 5 5 5 5 5 5 5 5 4 4 4 3 3 3 3 3 3 3 3 3 3 3 3 3 3 3 3 3 3
2 2 3 3 4 4 5 5 5 5 6 6 6 6 6 6 6 6 6 7 7 7 7 7 6 6 6 6 6 6 6 5 5 5 5 5 5 5 5 5 5 5 4 4 5 5 5 4 4 3 3 3 3 3 3 3 3 2 2 2 2 2 2 2 3 3 3 3 3
Height
764 765 767 768 769 771 772 773 774 776 777 778 779 780 781 783 784 785 787 788 788 789 790 792 793 794 795 797 798 799 800 802 803 804 805 807 808 809 811 812 814 815 816 817 818 819 820 821 822 823 824 825 826 827 827 828 829 830 831 831 832 833 834 835 836 836 837 838 838
762 763 764 766 767 768 770 771 773 774 775 776 777 778 779 780 781 783 784 785 786 787 788 789 791 792 793 794 796 797 798 799 801 802 803 805 806 807 809 810 812 813 814 815 816 817 818 819 820 821 822 823 824 825 825 826 827 828 829 829 830 831 832 833 833 834 835 836 837
759 760 762 763 765 766 767 768 769 771 772 773 774 776 777 778 779 780 781 782 783 785 786 788 789 790 791 793 794 795 796 797 799 800 801 803 804 805 807 808 809 810 812 813 813 814 816 817 818 819 819 820 821 822 823 824 825 826 827 827 828 829 830 831 832 833 834 834 835
757 758 759 760 761 762 763 764 766 767 769 771 772 773 775 776 777 778 779 780 782 783 784 785 787 788 789 791 792 793 794 795 797 798 799 801 802 803 804 806 807 808 809 810 811 812 813 814 816 817 817 818 819 819 820 821 823 823 824 825 826 827 828 828 830 831 832 833 833
755 756 757 757 758 759 760 762 763 765 767 768 770 771 773 773 775 776 777 779 780 781 782 783 784 786 787 788 790 791 792 793 795 796 797 798 800 801 802 803 805 806 807 808 809 810 811 813 814 814 815 816 816 817 818 819 821 822 823 824 825 825 826 827 828 829 830 831 832
752 753 754 755 756 757 758 760 761 763 764 766 768 769 770 771 772 773 775 776 777 778 779 781 783 784 785 787 788 789 790 791 793 794 795 796 798 799 800 801 803 803 805 806 807 808 809 811 812 812 813 814 814 815 816 818 819 820 821 822 823 823 824 825 826 827 828 829 830
750 751 752 753 755 756 757 758 759 761 762 763 765 766 767 768 769 770 772 773 774 776 778 779 780 782 783 784 785 787 788 789 790 791 793 794 795 797 798 799 800 801 803 803 805 806 808 808 809 810 811 812 813 813 815 816 817 818 818 819 820 821 822 823 824 825 826 827 828
749 750 751 752 753 754 755 756 758 759 760 761 762 763 764 765 766 768 769 771 773 774 775 777 778 779 780 782 783 784 785 787 788 789 790 792 793 794 796 797 798 799 800 801 803 804 805 806 807 808 808 809 810 811 812 813 814 815 816 817 818 819 820 821 822 823 824 825 826
748 748 749 750 752 753 753 755 756 757 758 758 759 760 762 763 764 766 768 769 770 771 773 774 775 777 778 779 780 782 783 784 785 787 788 789 791 792 793 795 796 797 798 799 800 801 803 804 805 805 806 807 808 808 810 811 812 813 814 815 816 817 818 819 820 821 822 823 824
746 747 748 749 750 751 752 753 754 755 755 756 757 758 760 761 763 764 765 766 768 770 771 772 773 775 776 777 778 779 780 782 783 784 786 787 788 789 791 792 793 794 795 797 798 799 800 802 802 803 803 804 805 806 808 809 810 811 812 813 814 815 816 817 818 819 820 821 822
743 744 746 747 748 749 751 752 753 753 754 754 756 757 758 760 761 762 763 765 767 768 769 770 771 773 773 775 776 777 778 779 781 782 783 785 786 787 788 789 791 792 793 794 795 797 798 799 800 800 801 802 803 804 805 807 808 808 809 811 812 813 814 815 816 817 818 819 820
742 743 744 745 747 748 749 750 751 752 752 753 754 755 756 758 758 760 762 763 764 765 766 768 769 770 771 773 774 775 776 778 779 780 781 782 783 785 786 787 788 789 790 792 793 794 795 796 797 798 799 800 801 802 803 804 805 807 808 808 810 811 812 813 813 814 816 817 818
740 741 743 744 745 746 748 748 749 749 750 751 752 753 754 755 757 758 760 761 762 763 764 766 767 768 769 770 772 773 774 775 777 778 779 780 781 783 784 785 786 787 788 789 790 791 792 793 794 795 796 797 798 799 801 802 803 804 805 806 807 808 809 810 811 812 813 815 816
738 739 740 742 743 744 745 746 747 748 748 749 750 751 752 753 755 756 757 758 759 761 762 764 765 766 767 768 769 771 772 773 774 776 777 778 779 780 782 783 784 785 786 787 788 789 789 790 791 792 793 795 796 797 798 799 800 801 802 803 804 805 806 808 809 810 811 813 813
736 737 738 739 741 742 743 744 744 745 746 747 748 749 750 751 753 754 755 756 758 759 760 762 763 764 765 766 767 768 770 771 772 773 774 776 777 778 779 780 781 783 784 785 786 786 787 788 789 790 791 792 793 794 796 797 798 799 800 801 802 803 804 805 807 808 809 810 811
734 735 736 737 738 739 740 741 742 743 744 745 746 747 748 749 750 752 753 754 755 757 758 759 760 761 763 764 765 766 768 769 770 771 772 773 774 775 777 778 779 780 781 782 783 784 785 785 786 788 789 790 791 792 793 794 796 797 798 798 799 801 802 803 804 805 806 807 808
731 732 733 734 735 736 737 738 739 740 741 742 743 745 746 747 748 749 750 752 753 754 756 757 758 759 760 762 763 764 765 766 768 768 769 770 771 773 774 775 776 777 778 780 781 781 782 783 784 786 787 788 789 790 791 793 793 795 796 797 798 799 800 801 802 803 804 805 806
729 730 730 731 732 733 734 735 736 738 738 740 741 742 743 744 746 747 748 749 750 752 753 754 755 757 758 759 760 762 763 763 764 765 766 768 768 770 771 772 773 775 776 777 778 779 780 781 783 784 785 786 787 788 790 791 792 793 794 795 796 797 798 800 801 802 803 803 804
727 727 728 728 729 730 731 732 733 735 736 737 739 740 741 742 743 744 745 747 748 749 750 752 753 754 755 756 757 758 760 761 762 763 763 765 766 768 769 770 771 773 774 775 776 777 778 779 780 782 783 784 785 787 788 789 790 791 792 793 794 796 797 798 799 800 801 802 803
724 725 725 725 726 727 728 729 731 732 733 735 737 738 739 740 741 742 743 744 745 747 748 749 750 752 753 753 755 756 757 758 759 760 761 763 764 765 766 768 769 770 772 773 774 775 776 777 778 779 781 782 783 785 786 787 788 789 791 792 793 794 795 796 797 798 799 800 802
722 723 723 723 724 725 726 727 728 730 731 733 734 735 736 738 739 740 740 741 743 744 746 747 748 749 750 751 752 753 754 755 757 758 759 760 761 762 763 765 767 768 769 770 771 773 774 775 776 777 778 779 781 782 783 785 786 787 788 790 791 792 793 794 796 797 798 799 800
721 721 721 722 722 723 724 725 726 728 729 730 732 733 734 735 736 737 738 739 741 743 743 744 745 746 747 748 749 750 752 753 754 755 756 757 758 759 761 763 764 766 767 768 769 770 771 772 773 774 776 777 778 779 781 782 783 785 786 787 788 790 791 793 794 795 796 797 798
720 720 721 721 722 722 723 723 724 726 727 728 729 730 731 733 733 735 736 738 739 740 741 742 743 743 744 745 747 748 749 751 752 753 754 755 756 757 759 760 762 763 764 765 766 767 768 769 771 772 773 774 775 777 778 779 781 782 783 785 786 788 789 791 792 793 795 796 797
720 721 721 721 721 722 722 722 723 724 724 725 726 727 728 730 731 733 734 736 737 738 738 739 740 741 743 743 745 746 747 748 749 750 751 753 753 755 756 758 759 760 760 761 762 763 765 766 768 769 770 771 772 773 775 776 778 779 781 782 783 785 787 788 790 791 793 794 795
720 721 721 721 721 721 721 721 722 722 722 723 723 725 726 727 729 730 732 733 734 735 736 737 738 739 741 742 743 744 745 746 747 748 749 750 751 752 753 755 756 757 757 758 759 761 762 763 764 765 767 768 770 771 772 774 775 776 778 779 781 782 784 786 788 789 790 792 793
720 720 720 720 720 721 720 720 720 720 720 721 722 723 723 725 726 728 729 730 731 732 733 735 736 737 738 740 741 742 743 743 744 745 746 747 748 749 750 751 752 753 754 755 757 758 759 760 761 762 763 765 767 768 770 771 773 774 775 777 778 780 781 783 785 787 788 789 791
719 719 719 719 720 720 719 719 719 719 719 720 720 721 721 722 723 725 726 727 728 729 731 732 733 735 736 737 738 739 740 740 741 742 743 744 745 746 747 748 749 750 751 752 753 755 757 758 759 760 761 763 764 765 767 768 770 772 773 774 776 777 778 780 782 783 786 787 789
718 718 718 718 719 718 718 718 719 719 719 719 719 719 720 721 721 722 723 724 725 727 728 730 731 732 733 734 735 736 736 737 738 739 741 742 743 743 744 744 745 746 747 749 751 753 754 756 757 758 759 760 761 763 764 766 768 769 771 772 773 775 776 778 779 781 783 785 787
716 717 717 717 717 717 718 718 718 718 718 718 719 719 720 720 720 721 721 722 723 724 725 726 728 729 730 731 732 732 733 734 736 737 738 739 740 741 741 742 743 744 745 747 748 750 752 754 755 756 757 758 759 761 762 764 765 767 768 770 771 773 774 776 777 779 781 783 784
715 715 715 716 716 716 716 717 717 717 718 718 719 720 720 720 720 720 720 721 721 722 722 723 725 726 727 727 728 729 731 732 733 734 736 737 738 738 739 740 741 742 743 745 747 749 750 752 753 755 756 757 758 759 760 762 763 765 766 768 769 770 772 774 775 777 779 780 782
714 714 714 714 714 714 715 715 716 717 717 718 718 719 719 719 719 719 719 719 720 720 721 722 723 723 723 724 725 727 728 729 731 732 733 734 735 735 737 738 739 741 742 743 745 747 749 751 752 754 755 755 756 757 758 760 761 763 764 766 767 768 770 772 773 775 777 778 780
713 713 713 713 713 713 713 714 715 715 716 717 717 717 718 718 718 718 718 719 720 720 721 722 722 722 722 723 724 725 726 727 728 729 730 731 732 733 735 736 738 739 740 742 744 746 748 749 751 753 753 754 755 756 757 758 760 761 763 764 765 767 768 770 772 773 775 777 778
712 712 711 711 711 712 712 713 713 714 714 715 715 716 716 716 717 718 718 719 720 720 720 720 721 721 722 722 723 724 725 725 726 727 728 729 731 732 733 735 736 737 739 740 742 744 746 748 749 751 752 753 754 755 756 757 758 760 762 763 764 766 767 768 770 772 773 775 776
711 710 710 710 710 710 710 711 711 712 713 713 713 714 715 715 716 717 718 718 719 719 719 719 720 720 721 722 723 723 724 725 725 726 728 728 730 731 733 733 734 736 737 739 740 742 744 746 748 749 750 752 753 753 755 756 758 759 761 762 763 765 766 768 769 770 772 773 775
710 710 709 709 709 709 709 709 710 710 711 711 712 713 713 714 715 716 717 717 718 718 719 719 720 720 721 722 723 723 724 724 725 726 727 728 729 730 731 732 733 734 736 738 739 741 743 745 746 748 749 750 751 753 754 756 757 758 759 761 762 764 765 766 768 769 771 772 774
710 709 708 708 708 708 708 708 708 709 709 710 711 711 712 713 714 715 716 717 718 718 718 719 720 721 721 722 723 723 723 724 725 725 726 727 728 729 730 731 732 733 735 737 738 740 742 743 745 746 748 749 750 752 753 755 756 757 758 760 761 763 764 765 767 768 770 771 773
710 709 709 708 708 708 708 708 708 708 708 709 709 710 711 712 713 714 715 716 717 717 718 718 719 720 720 721 722 722 723 723 724 725 726 727 728 728 729 730 731 733 734 736 738 740 741 743 744 745 747 747 749 750 752 754 755 757 758 759 760 762 763 764 766 767 769 770 772
711 710 709 708 708 708 708 707 708 708 708 708 709 709 710 711 712 713 714 715 715 716 717 718 718 719 720 720 721 722 723 723 724 725 726 727 727 728 729 730 731 733 734 736 738 739 741 743 743 745 745 746 747 749 751 753 754 756 757 758 760 761 763 764 765 767 768 769 771
712 711 710 709 708 708 708 708 708 708 708 708 709 709 710 711 712 712 713 714 714 715 716 717 718 718 719 720 721 722 723 723 724 725 726 727 727 728 729 730 731 733 735 737 738 740 741 742 743 744 744 745 746 748 749 751 753 755 756 758 759 761 762 763 765 766 767 769 771
713 712 711 710 710 709 709 708 708 708 708 708 709 709 710 711 711 712 713 713 714 715 716 716 717 718 718 719 720 721 722 723 724 725 726 727 727 728 729 730 732 733 735 737 738 739 741 742 743 743 743 744 746 747 749 750 752 754 755 757 758 760 762 763 764 765 767 768 770
714 713 713 712 711 711 710 710 709 709 709 709 709 709 710 711 711 712 713 713 714 715 715 716 716 717 718 718 719 720 722 723 724 725 726 727 727 728 729 731 732 733 735 736 738 739 740 742 742 743 743 744 746 747 748 750 752 753 754 756 757 759 760 762 763 764 766 768 769
Wind_Speed
35 34 34 34 34 34 33 33 33 33 32 32 31 32 32 33 32 32 32 32 32 32 33 33 33 34 34 34 35 35 36 36 37 37 37 37 37 37 36 36 36 36 36 35 35 34 33 32 32 31 31 31 30 30 30 30 30 29 29 29 30 29 29 28 29 29 30 29 29
35 35 35 34 34 33 33 32 33 33 33 33 32 33 33 33 33 33 33 33 33 33 33 33 33 33 33 34 34 34 35 35 36 36 36 36 35 35 35 35 35 36 36 36 35 34 33 33 32 31 31 31 31 31 31 31 30 30 30 30 30 30 29 29 29 29 30 30 29
36 35 35 34 34 34 33 32 33 34 34 34 33 33 33 33 34 34 34 34 34 33 33 33 33 33 33 33 33 33 34 34 35 35 35 35 34 34 34 34 35 35 35 35 35 35 34 33 33 32 32 31 31 31 31 31 31 30 30 30 30 30 30 30 30 29 29 29 29
36 35 35 35 35 35 35 34 35 35 36 35 34 33 33 33 34 34 34 34 34 33 33 33 33 33 33 33 33 33 33 33 34 34 34 34 34 34 34 34 34 34 35 35 35 35 34 33 33 32 32 32 32 32 32 31 31 31 31 30 30 30 30 30 30 30 29 29 29
36 36 36 36 37 37 36 35 35 35 35 35 34 33 33 33 33 33 33 33 34 34 34 34 33 33 33 33 33 33 33 33 33 33 33 33 33 33 33 33 34 34 35 35 35 35 34 33 33 32 32 33 32 32 32 31 31 31 31 30 30 30 31 30 30 30 30 30 30
36 36 36 36 37 37 36 35 35 35 35 35 35 34 33 34 33 33 33 34 34 35 35 34 33 33 33 33 33 33 33 32 33 33 33 33 33 33 33 33 33 34 34 35 35 35 34 33 33 33 33 32 32 32 31 31 31 31 31 30 31 31 31 31 30 30 30 30 30
36 36 36 36 36 36 36 35 35 35 35 35 35 36 35 35 34 34 34 34 34 34 34 33 33 33 33 33 33 33 33 33 33 33 33 33 33 33 33 33 33 34 34 34 35 35 34 34 33 33 32 32 32 32 31 31 31 31 31 31 31 32 31 31 31 31 30 30 30
35 35 36 36 36 36 36 35 35 34 34 35 36 37 37 36 36 35 34 34 33 33 33 34 34 34 34 34 34 34 34 33 33 33 33 33 33 33 33 33 33 34 34 34 35 35 35 34 34 33 33 32 32 32 32 31 31 31 31 32 32 32 32 32 31 31 31 31 30
33 35 35 36 35 36 36 35 35 35 35 35 37 38 38 37 36 35 34 34 34 33 33 33 34 34 34 34 34 34 34 34 34 34 33 33 33 33 33 34 34 34 34 34 35 35 35 35 34 34 33 33 32 32 32 32 32 32 32 32 32 31 32 32 32 31 31 31 31
33 34 35 35 35 35 35 35 35 35 35 35 36 37 37 36 36 36 35 35 34 33 32 33 33 34 34 34 34 34 34 34 34 34 34 34 34 34 34 34 34 35 35 35 35 36 36 35 35 34 34 34 33 33 32 32 32 32 32 31 31 31 31 32 32 31 31 31 31
33 34 34 35 35 35 35 34 35 35 35 35 35 36 36 36 36 36 35 34 33 33 33 33 33 33 34 34 34 34 34 34 34 34 34 34 34 34 34 35 35 35 35 35 35 36 36 36 35 35 34 34 33 33 32 32 32 32 32 31 31 31 31 32 32 32 31 31 31
33 33 34 35 35 35 34 34 34 34 35 35 35 35 35 36 37 36 35 34 33 34 34 33 33 33 34 34 34 34 34 34 34 34 34 34 34 34 35 35 36 36 36 36 36 36 36 36 36 36 35 34 33 33 33 33 33 33 32 32 31 31 32 32 32 32 32 32 31
32 32 33 34 34 34 34 34 34 34 34 34 35 35 35 36 36 36 35 34 34 34 34 34 33 34 34 34 34 34 34 34 34 34 34 34 34 35 35 35 36 36 36 36 36 36 37 37 37 37 36 35 34 34 33 34 34 34 33 33 32 32 33 33 33 33 32 32 32
32 32 33 33 34 34 34 34 33 33 33 34 34 34 34 35 36 36 36 35 35 35 34 34 33 34 34 35 35 35 35 35 35 34 34 34 35 35 35 35 36 36 37 37 37 37 37 37 38 38 38 37 36 35 34 34 34 34 34 34 33 33 33 33 33 33 33 32 33
32 32 33 33 34 34 34 34 33 33 33 34 34 34 34 34 35 35 36 36 35 35 34 34 34 34 35 35 35 35 35 35 35 35 35 35 35 35 35 35 36 37 37 37 37 38 38 38 38 38 38 38 37 36 35 35 35 35 35 35 35 34 34 33 33 33 33 34 34
32 32 33 33 34 35 35 34 33 32 33 33 34 33 33 33 34 34 35 35 35 34 34 34 34 34 34 35 35 35 35 35 35 35 35 35 35 36 36 36 36 37 37 37 38 38 38 38 38 38 38 38 37 36 35 35 35 35 35 35 35 35 34 33 33 33 34 34 34
32 32 33 33 35 36 35 35 33 33 33 33 33 33 33 33 33 33 35 36 35 34 34 35 35 34 34 34 35 35 35 35 35 36 36 36 36 37 37 37 37 38 38 38 38 38 38 38 38 38 38 38 37 36 36 35 35 35 35 35 35 34 34 33 33 33 34 34 34
32 32 33 34 35 36 36 36 35 34 33 34 34 34 34 33 32 33 34 36 35 35 35 35 35 35 35 35 35 35 35 36 36 36 37 37 37 38 38 38 38 38 38 39 39 39 39 38 38 37 37 37 36 36 35 35 35 34 34 34 34 34 34 33 33 33 33 34 34
32 33 33 34 35 37 37 38 37 35 35 34 34 34 34 34 33 33 34 35 36 36 36 35 35 35 35 36 36 36 36 36 37 37 37 37 37 38 38 38 38 38 38 39 39 39 39 38 38 37 36 36 36 35 35 34 34 34 34 34 34 34 33 33 33 33 33 33 33
32 33 34 35 36 37 38 38 38 37 36 35 34 34 35 35 34 34 34 35 36 36 36 36 35 35 35 36 36 36 36 37 37 37 37 38 37 38 39 39 38 38 38 39 39 38 38 38 37 37 36 36 35 35 35 34 33 33 33 33 33 33 33 33 32 32 32 32 32
32 33 34 35 36 37 37 38 38 37 36 35 35 35 35 35 35 35 36 36 36 36 36 36 36 36 36 37 37 37 37 37 37 37 37 38 38 38 39 39 39 38 38 38 38 38 38 38 37 37 37 36 36 35 35 34 34 33 33 33 32 32 32 32 32 32 31 31 31
32 33 34 34 35 36 36 37 37 37 36 35 35 36 36 36 36 37 37 36 36 36 36 37 37 37 37 37 38 38 38 37 37 37 37 38 38 38 39 39 39 39 38 39 39 38 38 38 38 38 37 36 36 36 36 35 34 34 33 32 32 32 32 32 31 31 31 30 30
31 31 32 33 34 35 35 36 36 36 36 36 36 36 36 37 37 37 36 36 35 36 36 37 37 37 38 38 38 38 38 37 37 37 37 37 38 38 38 38 39 39 39 39 39 39 39 38 38 38 38 37 37 37 36 36 35 34 33 33 32 31 31 31 31 30 30 30 29
29 29 30 30 32 33 34 34 35 35 36 36 36 36 37 37 37 37 36 35 36 36 37 37 37 37 38 38 38 38 37 37 37 37 37 37 37 37 38 38 39 40 40 40 40 40 40 39 38 38 38 38 37 37 37 36 36 35 34 33 32 31 31 30 30 30 30 29 29
27 27 27 28 29 31 32 33 34 35 36 37 37 37 37 37 37 36 36 36 36 37 37 37 37 37 37 37 37 37 37 38 37 37 37 37 37 37 37 38 39 40 41 41 41 41 41 40 40 39 38 38 37 37 37 36 36 36 35 34 33 32 31 30 30 30 29 29 29
25 26 26 27 28 29 31 33 34 35 36 37 37 37 37 37 37 37 36 37 37 37 37 37 37 36 36 36 36 37 37 38 38 38 38 38 38 38 38 38 38 39 40 41 41 42 41 41 40 40 39 38 38 37 36 36 36 36 35 35 34 33 32 31 30 30 29 29 28
24 25 26 27 27 28 30 32 33 34 35 35 36 36 37 37 37 36 37 37 37 38 37 37 37 36 36 36 36 37 37 38 38 38 38 38 38 39 39 39 39 39 40 41 41 41 41 41 40 40 39 39 38 37 37 36 36 36 35 35 34 33 33 32 31 30 30 29 28
22 24 25 26 26 27 29 30 31 32 33 34 35 36 36 36 36 36 36 37 37 37 36 36 36 36 35 35 36 37 38 38 38 38 38 38 39 39 40 40 39 40 40 41 41 41 40 40 39 39 39 38 38 38 37 36 36 35 35 34 34 33 33 32 31 31 30 29 28
20 21 23 24 26 27 28 28 30 31 32 32 33 33 34 34 34 35 35 36 36 35 35 35 36 35 34 35 36 38 38 38 38 37 37 37 38 39 40 40 39 39 39 40 40 40 39 39 38 38 38 38 38 37 37 36 35 35 34 34 33 33 32 32 31 30 30 29 28
19 19 20 22 24 26 27 27 28 29 30 30 30 30 31 32 33 33 33 34 34 35 35 35 34 34 35 36 37 37 37 38 37 37 37 37 38 39 39 39 38 37 37 38 38 38 38 38 37 36 36 36 36 36 36 35 35 34 34 33 33 32 32 31 31 30 30 29 29
18 18 19 20 22 24 25 26 26 27 27 27 28 28 29 30 31 32 33 33 33 34 34 34 33 34 35 36 36 36 36 37 37 36 36 37 38 38 38 38 37 36 36 36 36 37 37 36 36 34 34 34 35 35 35 35 35 34 33 33 32 32 31 31 30 30 30 30 29
16 17 18 19 20 22 23 24 24 25 25 26 26 27 28 29 30 31 31 31 31 31 31 31 32 33 34 34 34 35 35 35 36 36 37 37 37 37 37 36 36 35 35 35 35 35 36 35 35 33 32 32 33 34 34 34 34 33 33 32 31 31 31 30 30 30 30 29 29
15 16 16 17 18 19 20 21 22 23 23 24 25 26 27 28 29 29 29 29 29 29 29 30 31 32 32 32 32 32 33 34 35 35 35 36 36 36 35 35 35 34 34 34 34 34 34 34 34 33 31 31 31 32 33 33 32 31 31 31 30 30 30 30 29 29 29 29 29
14 15 15 16 17 17 18 19 20 21 21 22 24 25 26 26 26 26 26 26 26 27 28 29 30 30 30 30 30 30 30 31 32 33 33 33 33 33 33 33 34 34 33 33 33 33 34 34 34 32 30 29 30 30 31 31 30 30 29 29 29 29 29 29 29 28 28 27 27
12 12 13 14 15 15 15 16 17 18 19 21 22 23 24 24 24 24 24 24 24 24 25 26 27 27 27 27 27 28 28 29 30 30 31 31 31 31 32 32 32 32 32 31 31 32 33 33 33 32 30 28 28 29 30 30 29 29 28 28 28 28 28 28 27 27 26 26 25
11 10 10 11 12 12 13 13 14 16 17 19 20 21 22 22 23 23 22 22 21 21 22 22 23 23 23 24 24 25 26 27 27 28 29 29 29 30 30 30 30 30 30 30 30 31 32 33 32 31 30 28 28 28 29 29 29 28 28 27 27 27 27 26 26 25 25 24 24
13 11 9 9 9 9 10 11 12 13 15 17 18 19 20 20 21 21 21 20 20 20 20 20 20 21 21 22 22 22 23 24 25 26 26 27 27 28 28 28 27 27 27 28 29 30 31 32 31 30 29 28 28 28 28 28 28 27 27 26 26 26 25 25 24 24 23 23 22
15 13 11 9 8 8 9 9 10 12 13 15 16 17 17 18 19 19 19 19 19 19 19 19 19 19 20 20 20 20 20 21 22 23 24 24 25 26 27 26 25 25 25 26 28 29 30 31 31 30 29 28 29 29 28 28 27 26 25 25 24 24 23 23 23 23 22 22 21
15 13 11 9 8 7 7 8 9 10 11 12 13 14 14 15 16 16 17 18 19 19 19 18 18 18 18 18 18 18 18 18 20 21 22 23 24 25 25 25 24 24 24 25 26 28 29 29 30 30 29 29 29 29 28 27 26 25 25 24 23 23 23 23 23 23 23 22 21
14 13 12 10 7 5 4 4 5 6 7 8 10 10 11 12 13 13 14 15 16 17 17 17 17 17 17 18 18 18 18 18 18 20 21 22 23 23 24 25 24 24 24 24 26 27 28 28 28 29 29 28 28 28 27 27 26 25 24 24 24 24 24 24 24 24 23 23 23
14 13 12 11 9 7 5 3 1 1 3 5 7 8 9 10 11 11 12 13 14 15 16 16 16 17 17 18 19 19 19 18 18 19 20 21 22 23 23 24 25 24 24 24 25 26 27 27 28 28 27 27 27 27 26 26 25 25 25 25 25 25 25 25 24 24 24 23 23
Wind_Direction
200 199 199 199 199 200 200 201 202 201 200 199 197 197 197 197 197 198 199 199 200 202 203 205 206 209 212 214 215 215 216 217 218 219 220 222 223 223 223 222 221 221 220 221 221 221 221 221 221 221 222 223 223 224 225 225 224 223 222 221 221 221 221 220 219 218 217 217 218
200 200 200 200 200 200 201 202 202 202 202 201 199 199 198 198 198 199 200 201 202 203 204 205 207 209 211 213 215 216 216 217 217 218 219 221 223 223 223 222 222 221 220 220 220 219 218 218 218 218 219 221 221 221 222 223 223 221 220 220 220 220 220 219 220 219 218 218 218
201 201 200 200 200 200 200 201 202 202 202 201 201 200 199 199 200 201 202 203 204 204 205 205 207 209 210 213 215 216 217 217 217 218 218 219 221 222 222 222 221 221 220 219 219 218 217 216 216 216 217 218 219 219 219 220 220 219 219 219 219 219 218 218 219 219 218 217 217
202 201 201 200 200 200 200 201 201 201 202 201 201 201 200 201 202 203 203 204 204 205 205 206 207 208 210 212 213 215 216 217 217 217 217 218 219 220 220 221 220 219 219 218 218 217 216 215 214 215 216 217 218 218 218 217 217 217 217 218 218 217 217 218 217 217 216 216 217
203 202 202 202 202 202 202 202 201 201 201 201 200 200 201 202 203 203 204 204 205 206 207 207 208 208 210 211 212 214 215 216 216 216 217 217 218 218 219 218 218 218 217 217 216 216 215 214 213 214 215 217 218 218 217 216 215 215 215 216 216 216 217 217 216 216 215 215 216
203 204 204 204 203 203 203 203 202 201 200 200 200 200 201 201 202 202 203 204 206 207 207 208 208 208 209 209 211 212 213 214 214 215 216 216 216 216 216 216 216 216 216 215 215 214 213 212 211 212 214 216 217 217 217 215 214 213 213 214 214 215 216 216 216 215 214 214 214
205 204 205 205 204 204 203 203 203 201 200 200 200 200 201 202 202 202 203 205 205 206 206 206 207 207 207 208 208 210 211 212 213 214 214 215 215 214 214 214 214 214 214 213 212 212 211 211 210 211 212 213 214 215 215 214 212 212 212 212 213 214 214 215 215 214 214 214 213
206 206 206 206 205 205 204 203 202 201 200 200 201 202 202 202 202 203 203 204 204 204 204 205 206 207 207 207 207 208 209 210 211 212 213 213 213 213 212 212 212 212 212 212 211 209 209 209 209 210 210 211 211 212 212 212 212 212 212 212 213 214 214 214 214 214 213 213 213
208 208 207 207 206 206 205 204 203 201 201 201 202 203 203 203 203 203 202 202 203 203 203 203 205 206 206 206 207 207 208 209 209 210 211 211 211 211 210 210 209 209 210 210 209 208 207 207 208 209 210 210 210 210 210 210 211 212 212 213 213 213 213 213 214 214 214 213 213
208 208 207 207 207 206 205 205 204 203 202 203 203 204 203 203 203 203 203 203 203 202 201 202 203 204 205 206 206 207 208 209 209 209 209 210 210 209 208 208 207 207 207 208 208 207 206 206 207 208 209 210 210 210 209 209 209 211 212 212 212 212 212 213 213 213 213 213 213
208 208 207 207 207 206 206 205 204 204 204 204 204 204 203 203 204 204 204 203 202 202 202 202 202 203 204 205 206 207 208 208 209 209 209 209 209 209 208 207 206 206 206 206 206 205 205 205 206 207 208 209 210 209 208 208 209 210 211 212 212 211 211 212 212 212 212 213 213
209 208 208 207 207 206 205 204 204 204 204 204 204 204 204 204 205 205 204 203 202 203 203 203 203 203 204 205 206 207 207 208 208 208 208 208 208 208 208 207 206 206 205 205 205 204 204 205 206 207 207 208 208 208 208 208 208 209 210 211 211 210 210 211 211 211 211 212 212
209 208 208 207 207 206 205 205 204 204 204 204 204 204 204 205 205 204 203 203 203 204 204 203 204 204 205 205 206 206 207 207 208 208 208 208 208 207 207 207 206 205 205 205 204 204 204 205 206 206 207 207 207 208 208 208 207 207 208 209 209 210 210 211 211 211 210 210 211
208 208 207 206 206 205 205 205 205 204 204 204 205 204 204 204 205 204 204 204 204 204 204 203 204 205 206 207 206 206 207 207 208 208 208 208 208 207 206 206 206 205 204 204 205 205 205 205 206 207 207 207 207 208 208 208 208 208 208 208 209 210 210 211 211 210 209 209 210
208 207 206 206 205 204 204 204 205 205 205 205 204 204 204 204 204 204 204 204 205 205 204 203 204 205 207 208 207 207 207 207 207 208 208 208 207 207 206 206 206 205 204 204 205 206 207 207 207 207 208 208 208 208 208 209 209 209 210 210 210 211 211 210 210 210 209 209 209
207 207 206 204 204 204 204 204 205 205 205 205 205 204 203 203 203 203 203 204 204 204 204 204 204 205 206 207 208 207 207 207 207 207 207 207 207 207 206 206 205 205 204 204 205 206 208 209 209 209 209 209 209 209 209 209 210 210 211 212 212 212 211 211 210 210 210 211 210
207 206 205 203 203 203 204 204 205 205 205 205 204 204 203 202 202 202 203 203 203 203 203 204 205 205 205 205 206 207 206 207 207 207 207 207 207 207 207 206 206 206 205 205 205 206 208 209 209 210 210 210 210 210 210 210 210 211 212 212 213 212 212 212 211 212 212 212 212
206 205 204 203 203 203 203 204 205 205 205 205 204 204 203 202 201 202 203 203 203 203 203 204 204 204 204 204 205 205 206 206 207 208 208 208 208 208 208 207 207 207 206 206 206 207 208 208 209 210 210 210 210 210 210 211 211 212 212 212 213 213 213 213 213 213 213 213 213
206 205 204 203 203 203 204 204 205 205 206 205 205 204 203 203 202 202 202 203 203 203 203 203 204 204 205 204 204 205 206 206 207 208 209 209 209 209 209 208 208 207 207 207 207 208 209 209 209 209 209 210 210 210 211 211 211 212 213 213 213 213 213 213 214 214 215 215 215
206 205 204 204 204 204 204 204 205 205 206 206 205 204 204 204 203 203 202 203 204 204 204 203 203 204 204 205 205 205 206 208 208 209 210 210 210 210 210 209 208 208 207 208 208 209 209 209 209 209 209 209 209 209 210 210 211 212 212 213 213 213 213 213 214 215 216 217 216
208 207 206 205 205 204 204 205 205 205 206 205 205 205 205 205 204 204 204 205 204 204 204 204 204 204 204 205 205 206 207 208 209 209 210 210 210 210 210 210 208 208 208 208 208 209 209 209 209 209 209 209 209 209 209 209 209 210 212 212 213 214 214 214 214 215 216 217 217
211 209 208 207 206 206 205 205 205 205 205 206 206 206 206 206 206 206 207 206 205 204 204 205 205 205 205 206 206 207 207 208 209 210 210 210 211 211 211 210 208 208 208 208 208 209 209 209 209 209 209 209 209 209 209 208 208 209 210 211 212 213 213 214 214 214 215 216 217
214 212 211 210 209 208 207 206 205 205 205 206 206 206 207 207 207 207 207 207 206 205 206 206 207 207 207 208 208 207 207 208 209 210 210 211 211 211 210 209 208 208 208 208 208 208 208 208 209 209 209 209 209 209 209 208 208 208 208 209 210 211 212 212 213 213 214 215 217
219 216 214 213 211 210 208 207 206 206 206 206 206 207 207 207 208 207 207 207 207 207 207 207 208 208 209 209 209 208 208 208 208 209 210 210 210 210 209 209 209 209 209 209 209 208 208 207 207 208 208 208 209 209 208 208 208 207 207 207 208 209 210 211 211 211 212 213 215
224 221 219 217 215 213 211 209 207 207 207 207 207 207 207 208 207 207 207 207 207 208 208 208 208 209 209 209 209 209 209 209 208 208 209 209 210 209 209 209 209 210 210 210 209 209 208 208 207 207 207 207 208 208 208 208 208 207 207 206 206 206 207 207 208 208 209 211 212
230 227 224 221 219 216 213 211 210 209 209 208 208 207 207 208 207 207 207 207 208 208 209 209 208 208 208 208 208 209 209 210 210 209 208 208 208 208 208 208 209 210 210 210 210 209 209 209 208 207 206 206 206 206 206 206 207 207 206 206 205 205 204 203 204 205 206 208 210
234 232 229 226 223 220 217 215 214 212 211 210 209 208 208 208 207 206 206 207 208 208 209 208 208 208 208 208 208 208 209 210 210 210 209 208 207 207 208 208 209 210 210 210 210 209 208 208 208 208 207 206 205 205 204 204 205 205 205 205 205 204 203 202 201 201 202 204 206
238 235 233 231 228 225 222 219 217 215 214 213 211 211 210 208 207 207 207 207 207 207 207 208 208 208 208 207 208 208 209 209 210 210 210 209 208 208 208 208 209 210 210 210 209 208 207 207 207 207 207 206 205 205 204 204 203 203 203 203 204 204 203 202 200 199 198 200 202
243 240 237 234 232 230 227 224 221 219 218 216 215 213 212 210 209 208 207 207 207 206 206 207 207 207 206 207 208 209 209 209 209 209 209 209 209 209 209 209 210 210 210 209 208 207 206 206 206 206 206 206 205 205 204 203 202 201 201 202 202 202 201 200 199 197 197 197 198
249 246 242 239 236 234 232 229 226 224 222 220 218 216 215 213 211 210 209 208 207 207 207 206 205 205 205 207 208 208 208 209 209 208 208 208 208 209 209 209 209 210 210 209 207 206 205 205 204 205 205 205 205 204 203 202 201 200 199 199 200 199 199 198 197 196 196 196 197
254 251 248 244 241 238 236 234 231 229 226 224 222 220 218 216 214 213 212 211 210 209 208 207 206 206 207 207 207 207 207 207 207 207 207 207 208 209 209 209 209 209 209 208 207 205 204 203 203 203 203 204 204 203 202 201 200 199 198 197 197 197 197 196 196 196 196 197 197
258 255 252 249 246 243 241 238 236 233 230 227 224 222 221 219 218 217 215 214 212 211 209 208 207 207 207 208 207 207 206 206 206 206 207 207 208 208 208 208 208 208 208 207 206 204 203 202 201 200 200 202 202 201 200 200 199 198 197 196 196 195 195 195 196 197 198 198 199
265 260 256 253 250 247 244 241 238 235 232 229 226 224 223 222 221 219 218 216 214 212 211 209 208 208 208 207 207 206 206 206 206 206 206 207 207 207 207 206 207 208 207 206 205 203 201 199 198 197 197 198 199 199 198 197 197 196 195 195 195 195 196 197 198 198 199 200 202
275 269 264 259 255 251 247 243 239 235 232 229 227 225 224 223 221 220 219 217 216 214 213 211 210 210 209 208 207 206 206 206 206 206 206 206 206 205 205 205 206 207 206 204 202 200 198 196 195 194 193 193 195 195 195 194 193 193 192 193 194 196 197 199 200 201 201 202 203
292 281 272 265 260 255 249 243 238 233 229 227 225 224 223 222 221 220 219 217 216 215 214 213 212 211 210 210 209 208 207 206 206 206 205 205 204 203 203 203 204 204 203 201 199 196 194 192 192 191 190 190 191 192 192 191 191 191 191 192 193 195 197 199 200 201 202 203 204
325 308 289 274 264 257 250 243 236 230 226 224 223 222 222 221 220 219 218 216 215 214 213 213 212 210 209 209 209 208 207 206 205 204 204 203 202 200 199 200 200 201 199 197 194 192 190 189 188 188 188 189 189 190 190 190 190 190 190 191 192 194 195 197 198 199 201 203 205
346 334 316 294 275 262 252 243 235 229 225 222 221 220 220 220 219 218 216 214 212 211 210 209 208 207 207 207 207 207 207 206 204 202 200 200 198 196 195 195 195 195 194 191 189 188 187 186 186 186 187 188 188 188 187 188 188 188 188 189 190 192 192 194 195 196 198 200 202
352 345 333 314 292 274 260 248 238 230 226 223 222 220 219 218 216 215 213 211 208 207 206 205 204 204 204 204 203 203 203 203 201 198 196 195 194 193 191 189 188 188 187 186 185 185 185 186 187 188 189 188 187 186 185 184 184 184 185 185 186 187 188 189 189 190 192 194 194
357 354 347 334 313 291 271 253 241 233 228 224 221 219 216 214 212 210 209 207 205 204 202 200 199 199 199 199 197 196 195 195 196 194 192 191 191 190 189 186 183 182 182 183 184 185 186 186 187 189 190 189 187 185 183 181 180 180 180 180 179 180 181 182 182 182 183 184 184
6 6 5 0 349 331 302 269 246 233 225 219 212 207 204 202 201 201 201 201 200 199 197 194 192 191 190 189 188 185 183 183 185 187 187 187 188 189 189 187 183 181 180 182 184 186 185 184 185 187 188 187 185 183 180 178 176 175 174 174 173 173 173 175 175 175 175 176 177
17 20 23 24 23 22 21 24 48 168 180 180 178 179 181 183 184 185 185 186 186 185 184 181 179 178 177 177 176 174 171 170 173 177 181 184 186 188 189 189 186 183 182 182 184 184 182 182 183 184 185 183 181 179 177 174 171 169 169 169 169 168 168 169 170 171 172 173 175